BEESAT-3 (39135 NORAD) Tracking and Keplerian Element Data

This shows tracking and keplerian element data for the satellite.

Feedback or suggestion? Click here.




ElementValue
Catalog39135
NameBEESAT-3
Epoch Orbit46526
Epoch Day262.09548295
Epoch Year2021
RAAN258.5878
Inclination64.8658
Eccentricity0.0015144
Argument of Perigee331.2722
Mean Anonmoly28.7569
Mean Motion15.19759072
Decay Rate1.911E-05
L11 39135U 13015F 21262.09548295 .00001911 00000-0 98075-4 0 9991
L22 39135 64.8658 258.5878 0015144 331.2722 28.7569 15.19759072465264

Live tracking and technical data element details for BEESAT-3 (NORAD 39135). BEESAT-3 can be tracked NOW for your location showing map with azimuth and elevation plus other details from your city location.

Track the satellite on the map from your city or location and see movement details for azimuth, elevation, latitude, longitude, range, height, and movement on the map or in text.







IsCatalogInMostPopularTable: catalog: 39135, numindb: 567
Update: records affected: 1



GetName: 39135 BEESAT-3

Hit Count: updated at: Fri, 24 Sep 2021 17:59:21 GMT